FW3311 Weather Reports


Display with metric or nautical units.
time (UTC)temp
F
wind
direction
speed
MPH
gust
MPH
rain 1hr
in
rain 24hr
in
rain mn
in
humidity
%
barometer
mb
20260503040438 39 237 0.0 0.0 0.00 0.00 0.00 63 1007.7
20260503035935 39 237 0.0 0.0 0.00 0.00 0.00 64 1007.6
20260503035432 40 237 0.0 0.0 0.00 0.00 0.00 63 1007.7
20260503034930 40 237 0.0 0.0 0.00 0.00 0.00 62 1007.9
20260503034427 40 237 0.0 0.0 0.00 0.00 0.00 62 1007.9
20260503033924 40 223 0.0 0.0 0.00 0.00 0.00 61 1007.9
20260503033421 40 242 0.0 0.0 0.00 0.00 0.00 62 1007.8
20260503032919 40 237 0.0 1.0 0.00 0.00 0.00 61 1007.8
20260503032418 40 229 1.0 1.0 0.00 0.00 0.00 62 1007.9
20260503031915 40 241 1.0 1.0 0.00 0.00 0.00 61 1008.4
20260503031413 40 234 0.0 1.0 0.00 0.00 0.00 62 1008.3
20260503030909 40 249 0.0 0.0 0.00 0.00 0.00 63 1008.3
20260503030405 40 256 0.0 0.0 0.00 0.00 0.00 60 1008.5
20260503025902 40 257 0.0 0.0 0.00 0.00 0.00 60 1008.7
20260503025359 40 251 0.0 0.0 0.00 0.00 0.00 59 1008.5
20260503024856 40 235 0.0 0.0 0.00 0.00 0.00 59 1008.7
20260503024353 40 227 0.0 0.0 0.00 0.00 0.00 59 1008.8
20260503023850 40 237 0.0 0.0 0.00 0.00 0.00 60 1008.8
20260503023347 40 237 0.0 0.0 0.00 0.00 0.00 59 1008.9
20260503022843 40 237 0.0 0.0 0.00 0.00 0.00 58 1009.0
20260503022338 40 237 0.0 0.0 0.00 0.00 0.00 58 1009.0
20260503021835 40 237 0.0 0.0 0.00 0.00 0.00 59 1009.1
20260503021331 40 237 0.0 0.0 0.00 0.00 0.00 58 1009.3
20260503020828 40 237 0.0 0.0 0.00 0.00 0.00 57 1009.1
20260503020327 40 237 0.0 0.0 0.00 0.00 0.00 57 1009.3
20260503015822 40 237 0.0 0.0 0.00 0.00 0.00 56 1009.4
20260503015320 40 237 0.0 0.0 0.00 0.00 0.00 55 1009.4
20260503014815 40 237 0.0 0.0 0.00 0.00 0.00 55 1009.3
20260503014313 40 236 0.0 1.0 0.00 0.00 0.00 53 1009.1
20260503013810 41 237 0.0 0.0 0.00 0.00 0.00 55 1009.3
20260503013308 41 237 0.0 0.0 0.00 0.00 0.00 52 1009.3
20260503012805 40 238 0.0 0.0 0.00 0.00 0.00 52 1009.5
20260503012305 40 233 0.0 0.0 0.00 0.00 0.00 53 1009.5
20260503011759 40 248 0.0 0.0 0.00 0.00 0.00 54 1009.5
20260503011255 40 239 0.0 0.0 0.00 0.00 0.00 53 1009.4
20260503010752 40 191 0.0 0.0 0.00 0.00 0.00 51 1009.6
20260503010249 41 239 0.0 0.0 0.00 0.00 0.00 52 1009.7
20260503005746 41 239 0.0 0.0 0.00 0.00 0.00 50 1009.6
20260503005244 41 240 0.0 0.0 0.00 0.00 0.00 49 1010.0
20260503004739 42 230 0.0 1.0 0.00 0.00 0.00 48 1009.8
20260503004238 42 222 0.0 1.0 0.00 0.00 0.00 49 1010.0
20260503003735 42 202 1.0 1.0 0.00 0.00 0.00 47 1009.9
20260503003232 42 216 1.0 1.0 0.00 0.00 0.00 46 1010.1
20260503002728 43 159 0.0 1.0 0.00 0.00 0.00 46 1010.1
20260503002225 43 222 1.0 1.0 0.00 0.00 0.00 45 1010.1
20260503001721 44 239 0.0 1.0 0.00 0.00 0.00 47 1010.2
20260503001218 44 226 1.0 1.0 0.00 0.00 0.00 47 1010.0
20260503000716 44 203 1.0 2.0 0.00 0.00 0.00 46 1010.2
20260503000213 45 221 1.0 1.0 0.00 0.00 0.00 45 1010.2
20260502235710 46 168 1.0 2.0 0.00 0.00 0.00 44 1010.2
20260502235208 46 191 2.0 2.0 0.00 0.00 0.00 43 1010.4
20260502234704 48 184 2.0 3.0 0.00 0.00 0.00 43 1010.4
20260502234201 48 126 2.0 2.0 0.00 0.00 0.00 41 1010.4
20260502233657 49 162 1.0 2.0 0.00 0.00 0.00 40 1010.1
20260502233154 50 174 2.0 3.0 0.00 0.00 0.00 38 1010.3
20260502232649 51 170 1.0 1.0 0.00 0.00 0.00 38 1010.4
20260502232147 51 163 3.0 3.0 0.00 0.00 0.00 38 1010.2
20260502231643 52 151 2.0 3.0 0.00 0.00 0.00 36 1010.5
20260502231141 52 244 1.0 1.0 0.00 0.00 0.00 37 1010.6
20260502230640 53 128 2.0 3.0 0.00 0.00 0.00 36 1010.5
20260502230138 53 170 1.0 1.0 0.00 0.00 0.00 37 1010.5
20260502225633 54 218 1.0 2.0 0.00 0.00 0.00 34 1010.5
20260502225131 55 212 1.0 1.0 0.00 0.00 0.00 35 1010.5
20260502224627 57 147 2.0 3.0 0.00 0.00 0.00 28 1010.5
20260502224123 55 264 2.0 2.0 0.00 0.00 0.00 27 1010.6
20260502223621 56 298 1.0 2.0 0.00 0.00 0.00 26 1010.6
20260502223120 55 292 2.0 2.0 0.00 0.00 0.00 27 1010.6
20260502222617 55 327 3.0 3.0 0.00 0.00 0.00 26 1010.8
20260502222113 55 290 2.0 2.0 0.00 0.00 0.00 27 1010.7
20260502221609 55 292 2.0 2.0 0.00 0.00 0.00 29 1011.0
20260502221106 54 286 1.0 1.0 0.00 0.00 0.00 27 1010.8
20260502220602 54 289 3.0 3.0 0.00 0.00 0.00 28 1010.9
20260502220058 53 287 1.0 2.0 0.00 0.00 0.00 29 1010.7
20260502215556 53 314 4.0 5.0 0.00 0.00 0.00 28 1010.9
20260502215052 53 304 1.0 2.0 0.00 0.00 0.00 28 1010.7
20260502214549 53 285 3.0 3.0 0.00 0.00 0.00 29 1010.9
20260502214047 53 301 4.0 5.0 0.00 0.00 0.00 30 1011.0
20260502213544 53 316 2.0 2.0 0.00 0.00 0.00 29 1010.7
20260502213042 53 282 1.0 1.0 0.00 0.00 0.00 28 1011.0
20260502212540 53 280 3.0 3.0 0.00 0.00 0.00 29 1011.1
20260502212038 53 311 5.0 7.0 0.00 0.00 0.00 28 1011.4
20260502211533 53 309 5.0 8.0 0.00 0.00 0.00 29 1011.4
20260502211030 54 292 3.0 5.0 0.00 0.00 0.00 29 1011.5
20260502210527 54 346 3.0 5.0 0.00 0.00 0.00 29 1011.6
20260502210024 54 319 1.0 2.0 0.00 0.00 0.00 29 1011.6
20260502205521 53 314 5.0 6.0 0.00 0.00 0.00 30 1011.9
20260502205018 53 313 5.0 6.0 0.00 0.00 0.00 31 1011.9
20260502204515 52 307 7.0 8.0 0.00 0.00 0.00 32 1011.7
20260502204013 52 288 3.0 5.0 0.00 0.00 0.00 32 1012.1
20260502203509 52 278 3.0 5.0 0.00 0.00 0.00 32 1012.1
20260502203006 51 299 3.0 5.0 0.00 0.00 0.00 31 1012.1
20260502202503 52 287 3.0 6.0 0.00 0.00 0.00 33 1012.2
20260502202001 52 297 3.0 5.0 0.00 0.00 0.00 33 1012.2
20260502201456 51 292 3.0 3.0 0.00 0.00 0.00 32 1012.2
20260502200953 51 297 3.0 3.0 0.00 0.00 0.00 33 1012.1
20260502200449 51 323 3.0 3.0 0.00 0.00 0.00 34 1012.2
20260502195947 51 299 4.0 6.0 0.00 0.00 0.00 32 1012.4
20260502195444 52 298 4.0 6.0 0.00 0.00 0.00 31 1012.6
20260502194940 52 314 6.0 8.0 0.00 0.00 0.00 31 1012.3
20260502194437 53 322 3.0 6.0 0.00 0.00 0.00 29 1012.5
20260502193933 52 290 5.0 6.0 0.00 0.00 0.00 31 1012.8
20260502193431 53 300 2.0 2.0 0.00 0.00 0.00 31 1012.8
20260502192926 52 286 4.0 7.0 0.00 0.00 0.00 32 1012.8
20260502192423 52 304 3.0 5.0 0.00 0.00 0.00 31 1013.1
20260502191920 51 329 5.0 7.0 0.00 0.00 0.00 33 1013.0
20260502191418 52 285 7.0 9.0 0.00 0.00 0.00 32 1013.2
20260502190915 51 279 5.0 7.0 0.00 0.00 0.00 34 1013.1
20260502190412 52 310 7.0 8.0 0.00 0.00 0.00 32 1013.2
20260502185908 51 300 6.0 7.0 0.00 0.00 0.00 33 1013.3
20260502185404 51 308 5.0 7.0 0.00 0.00 0.00 32 1013.4
20260502184901 52 313 5.0 6.0 0.00 0.00 0.00 33 1013.6
20260502184356 52 279 5.0 7.0 0.00 0.00 0.00 34 1013.5
20260502183853 52 333 2.0 3.0 0.00 0.00 0.00 33 1013.5
20260502183349 51 267 2.0 2.0 0.00 0.00 0.00 35 1013.4
20260502182844 52 336 6.0 9.0 0.00 0.00 0.00 33 1013.6
20260502182340 51 299 5.0 7.0 0.00 0.00 0.00 33 1013.5
20260502181837 51 302 7.0 9.0 0.00 0.00 0.00 34 1013.7
20260502181336 51 283 6.0 8.0 0.00 0.00 0.00 34 1014.1
20260502180833 52 331 7.0 9.0 0.00 0.00 0.00 33 1013.8
20260502180331 51 316 6.0 7.0 0.00 0.00 0.00 34 1013.9
20260502170249 51 249 3.0 5.0 0.00 0.00 0.00 35 1014.0
20260502164237 51 292 3.0 3.0 0.00 0.00 0.00 37 1014.3
20260502163732 50 294 1.0 1.0 0.00 0.00 0.00 35 1014.3
20260502163229 50 273 3.0 3.0 0.00 0.00 0.00 35 1014.5
20260502162726 50 317 4.0 5.0 0.00 0.00 0.00 37 1014.6
20260502162223 50 297 2.0 5.0 0.00 0.00 0.00 37 1014.6
20260502161720 50 319 2.0 2.0 0.00 0.00 0.00 36 1014.7
20260502161216 50 202 0.0 1.0 0.00 0.00 0.00 37 1014.6
20260502160715 51 13 1.0 1.0 0.00 0.00 0.00 36 1014.7
20260502160214 50 85 2.0 3.0 0.00 0.00 0.00 34 1014.7
20260502152127 49 209 1.0 1.0 0.00 0.00 0.00 39 1015.0
20260502151624 50 162 2.0 2.0 0.00 0.00 0.00 37 1015.0
20260502151121 49 297 5.0 7.0 0.00 0.00 0.00 39 1015.2
20260502150619 49 7 0.0 1.0 0.00 0.00 0.00 40 1015.1
20260502150115 48 303 2.0 3.0 0.00 0.00 0.00 39 1015.2
20260502130503 44 256 0.0 0.0 0.00 0.00 0.00 48 1015.9
20260502123446 40 272 0.0 0.0 0.00 0.00 0.00 53 1016.3
20260502122943 39 276 0.0 0.0 0.00 0.00 0.00 53 1016.1
20260502122439 39 283 0.0 0.0 0.00 0.00 0.00 54 1016.4
20260502121937 38 290 0.0 0.0 0.00 0.00 0.00 60 1016.5
20260502121434 35 302 0.0 0.0 0.00 0.00 0.00 64 1016.5
20260502120932 33 301 0.0 0.0 0.00 0.00 0.00 73 1016.4
20260502120428 33 301 0.0 0.0 0.00 0.00 0.00 73 1016.4
20260502115925 32 301 0.0 0.0 0.00 0.00 0.00 76 1016.4
20260502115422 31 301 0.0 0.0 0.00 0.00 0.00 80 1016.5
20260502114918 31 301 0.0 0.0 0.00 0.00 0.00 82 1016.4
20260502114415 30 301 0.0 0.0 0.00 0.00 0.00 81 1016.6
20260502113912 30 301 0.0 0.0 0.00 0.00 0.00 83 1016.7
20260502113410 30 301 0.0 0.0 0.00 0.00 0.00 83 1016.5
20260502112909 29 301 0.0 0.0 0.00 0.00 0.00 82 1016.7
20260502112406 29 301 0.0 0.0 0.00 0.00 0.00 82 1016.7
20260502111903 29 301 0.0 0.0 0.00 0.00 0.00 78 1016.5
20260502111400 29 301 0.0 0.0 0.00 0.00 0.00 77 1016.5
20260502110857 29 301 0.0 0.0 0.00 0.00 0.00 77 1016.3
20260502110355 28 301 0.0 0.0 0.00 0.00 0.00 77 1016.1
20260502105852 28 301 0.0 0.0 0.00 0.00 0.00 78 1016.4
20260502105349 28 301 0.0 0.0 0.00 0.00 0.00 78 1016.4
20260502104847 28 301 0.0 0.0 0.00 0.00 0.00 78 1016.1
20260502104344 28 301 0.0 0.0 0.00 0.00 0.00 78 1016.4
20260502103841 28 301 0.0 0.0 0.00 0.00 0.00 79 1016.1
20260502103339 28 301 0.0 0.0 0.00 0.00 0.00 77 1016.1
20260502102836 27 301 0.0 0.0 0.00 0.00 0.00 79 1016.4
20260502102332 28 301 0.0 0.0 0.00 0.00 0.00 77 1016.4
20260502101830 28 301 0.0 0.0 0.00 0.00 0.00 76 1016.5
20260502101328 29 301 0.0 0.0 0.00 0.00 0.00 78 1016.4
20260502100826 29 301 0.0 0.0 0.00 0.00 0.00 77 1016.4
20260502100325 29 301 0.0 0.0 0.00 0.00 0.00 77 1016.3
20260502091258 30 301 0.0 0.0 0.00 0.00 0.00 75 1016.6
20260502090756 30 301 0.0 0.0 0.00 0.00 0.00 72 1016.4
20260502090253 31 301 0.0 0.0 0.00 0.00 0.00 74 1016.1
20260502071153 30 300 0.0 0.0 0.00 0.00 0.00 74 1016.6
20260502070651 31 300 0.0 0.0 0.00 0.00 0.00 73 1016.6
20260502070149 30 300 0.0 0.0 0.00 0.00 0.00 71 1017.0
20260502065647 30 303 0.0 0.0 0.00 0.00 0.00 74 1016.8
20260502065144 29 303 0.0 0.0 0.00 0.00 0.00 77 1016.6
20260502064643 29 303 0.0 0.0 0.00 0.00 0.00 77 1017.0
20260502064140 29 303 0.0 0.0 0.00 0.00 0.00 75 1017.0
20260502063638 29 303 0.0 0.0 0.00 0.00 0.00 79 1016.9
20260502063135 29 304 0.0 0.0 0.00 0.00 0.00 76 1016.8
20260502062632 28 303 0.0 0.0 0.00 0.00 0.00 77 1016.9
20260502062130 28 303 0.0 0.0 0.00 0.00 0.00 79 1017.0
20260502061628 28 303 0.0 0.0 0.00 0.00 0.00 78 1016.8
20260502061125 29 303 0.0 0.0 0.00 0.00 0.00 76 1016.9
20260502060625 28 303 0.0 0.0 0.00 0.00 0.00 78 1017.0
20260502060122 28 303 0.0 0.0 0.00 0.00 0.00 78 1017.0
20260502055620 29 303 0.0 0.0 0.00 0.00 0.00 79 1017.1
20260502055118 29 303 0.0 0.0 0.00 0.00 0.00 79 1017.1
20260502054617 29 303 0.0 0.0 0.00 0.00 0.00 79 1017.1
20260502054113 29 302 0.0 0.0 0.00 0.00 0.00 77 1017.3
20260502053610 28 302 0.0 0.0 0.00 0.00 0.00 81 1017.2
20260502053108 29 302 0.0 0.0 0.00 0.00 0.00 78 1017.3
20260502052606 29 302 0.0 0.0 0.00 0.00 0.00 75 1017.1
20260502052104 29 302 0.0 0.0 0.00 0.00 0.00 78 1017.2
20260502051602 30 330 0.0 0.0 0.00 0.00 0.00 77 1017.2
20260502051059 29 305 0.0 0.0 0.00 0.00 0.00 79 1017.1
20260502050555 29 306 0.0 0.0 0.00 0.00 0.00 77 1017.3
20260502050052 30 305 0.0 0.0 0.00 0.00 0.00 76 1017.2
20260502045548 30 324 0.0 0.0 0.00 0.00 0.00 76 1017.2
20260502045046 30 297 0.0 0.0 0.00 0.00 0.00 76 1017.6
20260502044542 29 299 0.0 0.0 0.00 0.00 0.00 76 1017.5
20260502044039 29 305 0.0 0.0 0.00 0.00 0.00 77 1017.2
20260502043537 29 328 0.0 1.0 0.00 0.00 0.00 79 1017.4
20260502043033 29 301 0.0 0.0 0.00 0.00 0.00 80 1017.5
20260502042528 29 301 0.0 0.0 0.00 0.00 0.00 78 1017.4
20260502042026 29 302 0.0 0.0 0.00 0.00 0.00 77 1017.2
20260502041523 29 302 0.0 0.0 0.00 0.00 0.00 78 1017.5
20260502041020 29 302 0.0 0.0 0.00 0.00 0.00 78 1017.2